Regional Weather Roundup
Issued by NWS

Home | Current Version | Previous Version | Graphics & Text | Print | Product List | Glossary On
Versions: 1 2 3 4 5 6 7 8 9 10 11 12 13 14 15 16 17 18 19 20 21 22 23 24 25 26 27 28 29 30 31 32 33 34 35 36 37 38 39 40 41 42 43 44 45 46 47 48 49 50
000
ASUS43 KBIS 210902
RWRND

NORTH DAKOTA REGIONAL WEATHER ROUNDUP
NATIONAL WEATHER SERVICE BISMARCK ND
400 AM CDT FRI JUL 21 2017

NOTE: "FAIR" INDICATES FEW OR NO CLOUDS BELOW 12,000 FEET WITH NO
SIGNIFICANT WEATHER AND/OR OBSTRUCTIONS TO VISIBILITY.


NDZ001>003-009>011-017-211000-
NORTHWEST NORTH DAKOTA

CITY           SKY/WX    TMP DP  RH WIND       PRES   REMARKS
WILLISTON      PTCLDY    70  58  65 N13G43    29.79R
MINOT          CLOUDY    67  60  78 SE8       29.76F
MINOT AFB      CLOUDY    65  60  86 S5        29.74F
$$

NDZ018>021-031>035-040>046-211000-
SOUTHWEST NORTH DAKOTA

CITY           SKY/WX    TMP DP  RH WIND       PRES   REMARKS
BISMARCK       PTCLDY    69  63  81 E3        29.79F
DICKINSON      CLOUDY    69  62  78 S18       29.78F
GARRISON         N/A     66  58  75 SE10      29.79F
HETTINGER ARPT MOCLDY    67  60  78 S10       29.85F
$$

NDZ004>008-012>016-024-026-027-054-211000-
NORTHEAST NORTH DAKOTA

CITY           SKY/WX    TMP DP  RH WIND       PRES   REMARKS
GRAND FORKS    CLOUDY    72  66  81 E7        29.84F
GRND FRKS AFB  MOCLDY    68  64  89 E6        29.84F
DEVILS LAKE    CLOUDY    71  66  84 NE6       29.84F
$$

NDZ022-023-025-028>030-036>039-047>053-211000-
SOUTHEAST NORTH DAKOTA

CITY           SKY/WX    TMP DP  RH WIND       PRES   REMARKS
FARGO          CLOUDY    75  68  78 SE12      29.84F
JAMESTOWN      CLOUDY    71  65  81 SE7       29.80F
$$





USA.gov is the U.S. government's official web portal to all federal, state and local government web resources and services.